KD2SJF Weather Reports


time (UTC)temp
F
wind
direction
speed
knots
gust
knots
rain 1hr
in
rain 24hr
in
rain mn
in
humidity
%
barometer
mb
20260506211604 49 314 2.6 9.6 0.03 0.68 0.64 88 1006.6
20260506210053 51 17 0.9 11.3 0.03 0.68 0.64 88 1006.7
20260506204551 56 242 2.6 8.7 0.02 0.67 0.63 87 1006.3
20260506203048 57 217 0.9 7.0 0.00 0.65 0.61 88 1005.6
20260506201553 57 261 3.5 8.7 0.00 0.65 0.61 88 1005.5
20260506200051 57 307 3.5 10.4 0.00 0.65 0.61 88 1005.6
20260506194550 57 219 2.6 10.4 0.00 0.65 0.61 88 1005.8
20260506193048 57 205 3.5 15.6 0.00 0.65 0.61 88 1005.9
20260506191549 57 177 7.0 12.2 0.00 0.65 0.61 88 1006.0
20260506190055 57 266 5.2 13.9 0.01 0.65 0.61 89 1006.1
20260506184549 56 211 5.2 10.4 0.02 0.65 0.61 90 1006.3
20260506183048 56 24 5.2 12.2 0.03 0.65 0.61 91 1006.2
20260506181549 56 219 4.3 12.2 0.05 0.65 0.61 91 1006.3
20260506180057 56 218 6.1 14.8 0.06 0.64 0.60 90 1006.5
20260506174549 56 221 6.1 13.9 0.08 0.63 0.58 90 1006.5
20260506173103 56 227 5.2 11.3 0.11 0.62 0.58 90 1006.5
20260506171552 56 202 3.5 10.4 0.16 0.60 0.56 90 1006.5
20260506170051 56 167 5.2 10.4 0.17 0.58 0.54 90 1006.6
20260506164554 55 184 3.5 11.3 0.16 0.55 0.51 90 1006.7
20260506163044 56 183 3.5 10.4 0.13 0.51 0.47 89 1006.7
20260506161552 56 248 1.7 9.6 0.07 0.43 0.39 87 1006.8
20260506160104 56 203 4.3 10.4 0.06 0.41 0.37 87 1006.7
20260506154609 56 167 3.5 7.8 0.06 0.39 0.35 87 1006.5
20260506153050 56 206 4.3 10.4 0.07 0.38 0.34 86 1006.9
20260506151550 56 165 4.3 12.2 0.07 0.36 0.32 86 1007.1
20260506150047 56 198 4.3 9.6 0.09 0.35 0.31 88 1007.2
20260506144552 56 193 2.6 11.3 0.10 0.33 0.29 88 1007.5
20260506143044 56 190 3.5 10.4 0.10 0.31 0.27 88 1007.5
20260506141605 56 195 3.5 13.9 0.09 0.29 0.25 88 1008.1
20260506140049 56 211 5.2 14.8 0.07 0.26 0.22 87 1008.1
20260506134546 55 184 4.3 9.6 0.05 0.23 0.19 88 1008.2
20260506133047 55 204 2.6 7.0 0.04 0.21 0.17 88 1008.2
20260506131554 55 195 0.0 6.1 0.05 0.20 0.16 88 1007.9
20260506130051 54 194 1.7 5.2 0.06 0.19 0.15 88 1007.9
20260506124544 54 178 0.9 3.5 0.08 0.18 0.14 88 1007.8
20260506123049 53 190 0.0 4.3 0.09 0.17 0.13 89 1008.0
20260506121600 53 183 2.6 5.2 0.08 0.15 0.11 89 1008.4
20260506120116 53 215 2.6 5.2 0.08 0.13 0.09 88 1008.6
20260506114549 54 193 2.6 7.0 0.06 0.10 0.06 87 1009.0
20260506113056 54 201 1.7 3.5 0.04 0.08 0.04 86 1008.8
20260506111549 55 0 3.5 8.7 0.03 0.07 0.03 82 1008.6
20260506110055 55 0 0.0 1.7 0.01 0.05 0.01 82 1008.4
20260506104550 56 0 0.0 1.7 0.00 0.04 0.00 78 1008.3
20260506103055 58 0 0.0 3.5 0.00 0.04 0.00 71 1008.1
20260506101550 58 0 0.0 4.3 0.00 0.04 0.00 71 1008.0
20260506100048 57 0 0.9 4.3 0.00 0.04 0.00 73 1007.9
20260506094554 56 0 0.0 4.3 0.00 0.10 0.00 79 1007.7
20260506093052 52 0 0.0 1.7 0.00 0.10 0.00 92 1007.8
20260506091544 51 0 0.0 1.7 0.00 0.10 0.00 93 1007.6
20260506090043 51 0 0.0 3.5 0.00 0.10 0.00 93 1007.6
20260506084549 51 0 0.9 5.2 0.00 0.18 0.00 93 1007.8
20260506083048 51 0 0.0 0.0 0.00 0.18 0.00 93 1008.1
20260506081550 51 0 0.0 2.6 0.00 0.18 0.00 92 1008.3
20260506073055 51 0 0.0 0.0 0.00 0.18 0.00 92 1008.8
20260506071553 51 0 0.0 0.0 0.00 0.18 0.00 92 1009.0
20260506070107 52 0 0.0 0.0 0.00 0.18 0.00 92 1009.1
20260506061550 53 0 0.0 0.0 0.00 0.18 0.00 92 1009.5
20260506044558 54 0 0.0 2.6 0.00 0.18 0.00 90 1010.2
20260506043051 54 360 0.9 5.2 0.00 0.18 0.00 90 1010.4
20260506041556 54 21 2.6 5.2 0.01 0.18 0.00 91 1010.4
20260506040051 55 51 0.9 3.5 0.01 0.18 0.00 90 1010.3
20260506034549 56 0 0.0 0.9 0.02 0.18 0.18 90 1010.3
20260506033048 56 229 0.0 3.5 0.02 0.18 0.18 89 1010.3
20260506031558 56 0 0.9 2.6 0.01 0.17 0.17 88 1010.0
20260506030109 56 0 0.0 3.5 0.01 0.17 0.17 87 1010.0
20260506024552 56 0 0.0 3.5 0.00 0.16 0.16 88 1010.1
20260506023056 56 230 1.7 4.3 0.00 0.16 0.16 87 1010.0
20260506021547 57 230 0.0 2.6 0.00 0.16 0.16 88 1010.1
20260506020051 57 0 0.0 1.7 0.00 0.16 0.16 86 1010.0
20260506014600 58 0 0.0 0.9 0.00 0.16 0.16 83 1010.0
20260506013058 58 0 0.0 1.7 0.00 0.16 0.16 83 1009.8
20260506011557 58 0 0.0 0.0 0.00 0.16 0.16 82 1009.4
20260506010058 58 0 0.0 0.9 0.00 0.16 0.16 82 1009.3
20260506004624 59 230 0.0 1.7 0.00 0.16 0.16 80 1009.2
20260506003049 58 0 0.0 1.7 0.00 0.16 0.16 82 1009.1
20260506001549 58 0 0.0 3.5 0.00 0.16 0.16 82 1009.0
20260506000048 58 0 0.0 1.7 0.00 0.16 0.16 82 1008.9
20260505234607 59 0 0.0 3.5 0.00 0.16 0.16 81 1009.0
20260505233048 59 281 0.9 5.2 0.00 0.16 0.16 79 1008.6
20260505231550 59 206 0.0 4.3 0.00 0.16 0.16 81 1008.4
20260505230051 59 244 2.6 7.8 0.00 0.16 0.16 79 1008.1
20260505224544 59 238 0.9 7.8 0.00 0.16 0.16 81 1008.2
20260505223058 58 0 0.9 4.3 0.01 0.16 0.16 84 1008.1
20260505221605 58 0 0.9 7.0 0.02 0.16 0.16 86 1008.2
20260505220119 57 169 3.5 8.7 0.02 0.16 0.16 84 1008.7
20260505214604 58 125 0.9 11.3 0.01 0.15 0.15 81 1008.8
20260505213047 59 0 0.9 9.6 0.01 0.15 0.15 79 1009.3